Time,TemperatureF,DewpointF,PressureIn,WindDirection,WindDirectionDegrees,WindSpeedMPH,WindSpeedGustMPH,Humidity,HourlyPrecipIn,Conditions,Clouds,dailyrainin,SoftwareType,DateUTC
2013-03-04 00:00:00,22.3,20.8,29.77,North,5,7.0,7.0,94,0.00,,,0.00,Wunderground v.1.15,2013-03-04 05:00:00,
2013-03-04 00:02:00,22.3,20.8,29.77,NW,317,7.0,9.0,94,0.00,,,0.00,Wunderground v.1.15,2013-03-04 05:02:00,
2013-03-04 00:06:00,22.4,20.7,29.77,NW,319,7.0,19.0,93,0.00,,,0.00,Wunderground v.1.15,2013-03-04 05:06:00,
2013-03-04 00:11:00,22.4,20.7,29.77,NNW,334,8.0,19.0,93,0.00,,,0.00,Wunderground v.1.15,2013-03-04 05:11:00,
2013-03-04 00:18:00,22.4,20.7,29.77,NW,321,9.0,19.0,93,0.00,,,0.00,Wunderground v.1.15,2013-03-04 05:18:00,
2013-03-04 00:23:00,22.3,20.6,29.77,NW,321,9.0,19.0,93,0.00,,,0.00,Wunderground v.1.15,2013-03-04 05:23:00,
2013-03-04 00:29:00,22.3,20.6,29.77,NW,316,10.0,19.0,93,0.00,,,0.00,Wunderground v.1.15,2013-03-04 05:29:00,
2013-03-04 00:36:00,22.3,20.6,29.77,NNW,329,12.0,19.0,93,0.00,,,0.00,Wunderground v.1.15,2013-03-04 05:36:00,
2013-03-04 00:42:00,22.3,20.6,29.77,NW,326,10.0,19.0,93,0.00,,,0.00,Wunderground v.1.15,2013-03-04 05:42:00,
2013-03-04 00:48:00,22.3,20.3,29.77,NW,315,10.0,19.0,92,0.00,,,0.00,Wunderground v.1.15,2013-03-04 05:48:00,
2013-03-04 00:53:00,22.2,20.2,29.77,NW,324,10.0,19.0,92,0.00,,,0.00,Wunderground v.1.15,2013-03-04 05:53:00,
2013-03-04 01:00:00,22.1,20.1,29.77,NNW,335,10.0,16.0,92,0.00,,,0.00,Wunderground v.1.15,2013-03-04 06:00:00,
2013-03-04 01:06:00,22.1,20.1,29.78,NW,312,9.0,22.0,92,0.00,,,0.00,Wunderground v.1.15,2013-03-04 06:06:00,
2013-03-04 01:12:00,22.1,19.9,29.77,NW,326,10.0,22.0,91,0.00,,,0.00,Wunderground v.1.15,2013-03-04 06:12:00,
2013-03-04 01:18:00,22.0,19.8,29.77,NW,309,12.0,22.0,91,0.00,,,0.00,Wunderground v.1.15,2013-03-04 06:18:00,
2013-03-04 01:24:00,22.1,19.9,29.78,NW,319,10.0,22.0,91,0.00,,,0.00,Wunderground v.1.15,2013-03-04 06:24:00,
2013-03-04 01:30:00,22.0,19.8,29.78,NW,318,9.0,9.0,91,0.00,,,0.00,Wunderground v.1.15,2013-03-04 06:30:00,
2013-03-04 01:36:00,22.0,19.8,29.78,WNW,293,8.0,22.0,91,0.00,,,0.00,Wunderground v.1.15,2013-03-04 06:36:00,
2013-03-04 01:42:00,21.9,19.9,29.78,NW,313,7.0,22.0,92,0.00,,,0.00,Wunderground v.1.15,2013-03-04 06:42:00,
2013-03-04 01:48:00,21.7,19.5,29.78,NNW,329,10.0,22.0,91,0.00,,,0.00,Wunderground v.1.15,2013-03-04 06:48:00,
2013-03-04 01:54:00,21.7,19.5,29.78,NW,306,11.0,22.0,91,0.00,,,0.00,Wunderground v.1.15,2013-03-04 06:54:00,
2013-03-04 02:00:00,21.7,19.5,29.78,NW,305,9.0,10.0,91,0.00,,,0.00,Wunderground v.1.15,2013-03-04 07:00:00,
2013-03-04 02:06:00,21.7,19.2,29.78,NW,316,9.0,21.0,90,0.00,,,0.00,Wunderground v.1.15,2013-03-04 07:06:00,
2013-03-04 02:12:00,21.7,19.2,29.79,NW,319,10.0,21.0,90,0.00,,,0.00,Wunderground v.1.15,2013-03-04 07:12:00,
2013-03-04 02:17:00,21.8,19.6,29.78,NW,322,10.0,21.0,91,0.00,,,0.00,Wunderground v.1.15,2013-03-04 07:17:00,
2013-03-04 02:24:00,21.8,20.0,29.79,NNW,334,7.0,15.0,91,0.00,,,0.00,weatherlink.com 1.10,2013-03-04 07:24:00,
2013-03-04 02:30:00,21.8,19.6,29.78,WNW,299,10.0,21.0,91,0.00,,,0.00,Wunderground v.1.15,2013-03-04 07:30:00,
2013-03-04 02:35:00,21.8,19.6,29.78,NW,323,10.0,21.0,91,0.00,,,0.00,Wunderground v.1.15,2013-03-04 07:35:00,
2013-03-04 02:42:00,21.8,19.6,29.78,NW,321,8.0,21.0,91,0.00,,,0.00,Wunderground v.1.15,2013-03-04 07:42:00,
2013-03-04 02:48:00,21.8,19.6,29.78,NW,315,9.0,21.0,91,0.00,,,0.00,Wunderground v.1.15,2013-03-04 07:48:00,
2013-03-04 02:53:00,21.8,20.0,29.78,NNW,341,5.0,18.0,91,0.00,,,0.00,weatherlink.com 1.10,2013-03-04 07:53:00,
2013-03-04 03:00:00,21.8,19.6,29.78,NW,310,8.0,8.0,91,0.00,,,0.00,Wunderground v.1.15,2013-03-04 08:00:00,
2013-03-04 03:06:00,21.8,19.6,29.78,NW,320,8.0,18.0,91,0.00,,,0.00,Wunderground v.1.15,2013-03-04 08:06:00,
2013-03-04 03:12:00,21.8,19.6,29.78,NNW,340,10.0,18.0,91,0.00,,,0.00,Wunderground v.1.15,2013-03-04 08:12:00,
2013-03-04 03:18:00,21.8,19.6,29.78,WNW,303,9.0,18.0,91,0.00,,,0.00,Wunderground v.1.15,2013-03-04 08:18:00,
2013-03-04 03:24:00,21.8,19.6,29.78,NNW,344,8.0,18.0,91,0.00,,,0.00,Wunderground v.1.15,2013-03-04 08:24:00,
2013-03-04 03:30:00,21.8,19.6,29.79,NW,317,9.0,9.0,91,0.00,,,0.00,Wunderground v.1.15,2013-03-04 08:30:00,
2013-03-04 03:36:00,21.8,19.6,29.78,NW,325,10.0,18.0,91,0.00,,,0.00,Wunderground v.1.15,2013-03-04 08:36:00,
2013-03-04 03:42:00,21.7,19.7,29.79,WNW,296,9.0,18.0,92,0.00,,,0.00,Wunderground v.1.15,2013-03-04 08:42:00,
2013-03-04 03:48:00,21.7,19.7,29.79,NW,317,10.0,18.0,92,0.00,,,0.00,Wunderground v.1.15,2013-03-04 08:48:00,
2013-03-04 03:53:00,21.7,20.0,29.79,NW,316,9.0,17.0,92,0.00,,,0.00,weatherlink.com 1.10,2013-03-04 08:53:00,
2013-03-04 04:04:00,21.7,19.5,29.79,NW,325,9.0,9.0,91,0.00,,,0.00,Wunderground v.1.15,2013-03-04 09:04:00,
2013-03-04 04:09:00,21.7,20.0,29.79,NW,321,10.0,13.0,91,0.00,,,0.00,weatherlink.com 1.10,2013-03-04 09:09:00,
2013-03-04 04:16:00,21.6,19.4,29.79,NW,322,9.0,21.0,91,0.00,,,0.00,Wunderground v.1.15,2013-03-04 09:16:00,
2013-03-04 04:22:00,21.5,19.5,29.80,NW,304,11.0,21.0,92,0.00,,,0.00,Wunderground v.1.15,2013-03-04 09:22:00,
2013-03-04 04:28:00,21.5,19.5,29.80,NW,313,9.0,21.0,92,0.00,,,0.00,Wunderground v.1.15,2013-03-04 09:28:00,
2013-03-04 04:34:00,21.5,19.3,29.80,NW,320,9.0,21.0,91,0.00,,,0.00,Wunderground v.1.15,2013-03-04 09:34:00,
2013-03-04 04:39:00,21.5,19.0,29.80,NW,314,6.0,21.0,91,0.00,,,0.00,weatherlink.com 1.10,2013-03-04 09:39:00,
2013-03-04 04:46:00,21.5,19.3,29.80,NW,320,10.0,21.0,91,0.00,,,0.00,Wunderground v.1.15,2013-03-04 09:46:00,
2013-03-04 04:52:00,21.5,19.3,29.81,NW,305,9.0,21.0,91,0.00,,,0.00,Wunderground v.1.15,2013-03-04 09:52:00,
2013-03-04 04:58:00,21.5,19.5,29.81,NW,306,10.0,21.0,92,0.00,,,0.00,Wunderground v.1.15,2013-03-04 09:58:00,
2013-03-04 05:04:00,21.3,19.6,29.81,NW,307,8.0,22.0,93,0.00,,,0.00,Wunderground v.1.15,2013-03-04 10:04:00,
2013-03-04 05:10:00,21.3,19.6,29.81,NW,323,9.0,22.0,93,0.00,,,0.00,Wunderground v.1.15,2013-03-04 10:10:00,
2013-03-04 05:16:00,21.2,19.5,29.81,NW,316,9.0,22.0,93,0.00,,,0.00,Wunderground v.1.15,2013-03-04 10:16:00,
2013-03-04 05:22:00,21.2,19.5,29.82,NW,319,8.0,22.0,93,0.00,,,0.00,Wunderground v.1.15,2013-03-04 10:22:00,
2013-03-04 05:28:00,21.1,19.6,29.82,NW,309,9.0,22.0,94,0.00,,,0.00,Wunderground v.1.15,2013-03-04 10:28:00,
2013-03-04 05:34:00,21.1,19.6,29.82,NNW,332,10.0,22.0,94,0.00,,,0.00,Wunderground v.1.15,2013-03-04 10:34:00,
2013-03-04 05:39:00,21.1,20.0,29.82,NW,322,10.0,16.0,94,0.00,,,0.00,weatherlink.com 1.10,2013-03-04 10:39:00,
2013-03-04 05:46:00,21.1,19.6,29.82,NW,313,8.0,22.0,94,0.00,,,0.00,Wunderground v.1.15,2013-03-04 10:46:00,
2013-03-04 05:52:00,21.1,19.6,29.82,NW,313,8.0,22.0,94,0.00,,,0.00,Wunderground v.1.15,2013-03-04 10:52:00,
2013-03-04 05:58:00,21.0,19.5,29.82,North,5,9.0,22.0,94,0.00,,,0.00,Wunderground v.1.15,2013-03-04 10:58:00,
2013-03-04 06:04:00,21.0,19.3,29.82,NW,310,11.0,19.0,93,0.00,,,0.00,Wunderground v.1.15,2013-03-04 11:04:00,
2013-03-04 06:09:00,21.0,19.0,29.82,NW,325,11.0,19.0,93,0.00,,,0.00,weatherlink.com 1.10,2013-03-04 11:09:00,
2013-03-04 06:16:00,21.0,19.0,29.82,NW,323,10.0,19.0,92,0.00,,,0.00,Wunderground v.1.15,2013-03-04 11:16:00,
2013-03-04 06:22:00,21.0,19.0,29.82,NW,311,9.0,10.0,92,0.00,,,0.00,Wunderground v.1.15,2013-03-04 11:22:00,
2013-03-04 06:28:00,21.0,19.0,29.82,NW,309,9.0,19.0,92,0.00,,,0.00,Wunderground v.1.15,2013-03-04 11:28:00,
2013-03-04 06:34:00,20.9,19.2,29.83,WNW,302,9.0,19.0,93,0.00,,,0.00,Wunderground v.1.15,2013-03-04 11:34:00,
2013-03-04 06:40:00,20.9,18.9,29.82,NNW,345,10.0,10.0,92,0.00,,,0.00,Wunderground v.1.15,2013-03-04 11:40:00,
2013-03-04 06:46:00,20.9,18.9,29.83,NW,307,9.0,19.0,92,0.00,,,0.00,Wunderground v.1.15,2013-03-04 11:46:00,
2013-03-04 06:52:00,20.9,18.9,29.83,NW,321,8.0,19.0,92,0.00,,,0.00,Wunderground v.1.15,2013-03-04 11:52:00,
2013-03-04 06:58:00,20.9,19.2,29.83,NW,325,8.0,19.0,93,0.00,,,0.00,Wunderground v.1.15,2013-03-04 11:58:00,
2013-03-04 07:04:00,20.9,18.9,29.83,NW,311,8.0,21.0,92,0.00,,,0.00,Wunderground v.1.15,2013-03-04 12:04:00,
2013-03-04 07:10:00,21.0,19.0,29.83,NNW,338,7.0,21.0,92,0.00,,,0.00,Wunderground v.1.15,2013-03-04 12:10:00,
2013-03-04 07:16:00,21.1,19.1,29.83,North,360,7.0,21.0,92,0.00,,,0.00,Wunderground v.1.15,2013-03-04 12:16:00,
2013-03-04 07:22:00,21.1,19.1,29.83,NW,319,8.0,21.0,92,0.00,,,0.00,Wunderground v.1.15,2013-03-04 12:22:00,
2013-03-04 07:27:00,21.1,19.1,29.83,NW,316,9.0,21.0,92,0.00,,,0.00,Wunderground v.1.15,2013-03-04 12:27:00,
2013-03-04 07:34:00,21.1,19.1,29.83,NW,306,9.0,21.0,92,0.00,,,0.00,Wunderground v.1.15,2013-03-04 12:34:00,
2013-03-04 07:40:00,21.1,19.1,29.83,NNW,328,9.0,9.0,92,0.00,,,0.00,Wunderground v.1.15,2013-03-04 12:40:00,
2013-03-04 07:46:00,21.2,19.2,29.84,NW,317,8.0,21.0,92,0.00,,,0.00,Wunderground v.1.15,2013-03-04 12:46:00,
2013-03-04 07:52:00,21.2,19.5,29.84,NW,309,7.0,21.0,93,0.00,,,0.00,Wunderground v.1.15,2013-03-04 12:52:00,
2013-03-04 07:58:00,21.2,19.5,29.84,NW,314,7.0,21.0,93,0.00,,,0.00,Wunderground v.1.15,2013-03-04 12:58:00,
2013-03-04 08:04:00,21.1,19.4,29.84,NW,317,9.0,19.0,93,0.00,,,0.00,Wunderground v.1.15,2013-03-04 13:04:00,
2013-03-04 08:10:00,21.1,19.1,29.84,WNW,300,10.0,10.0,92,0.00,,,0.00,Wunderground v.1.15,2013-03-04 13:10:00,
2013-03-04 08:16:00,21.1,19.1,29.84,NW,310,10.0,19.0,92,0.00,,,0.00,Wunderground v.1.15,2013-03-04 13:16:00,
2013-03-04 08:22:00,21.0,19.0,29.84,NW,310,11.0,19.0,92,0.00,,,0.00,Wunderground v.1.15,2013-03-04 13:22:00,
2013-03-04 08:28:00,21.0,19.0,29.84,NW,305,11.0,19.0,92,0.00,,,0.00,Wunderground v.1.15,2013-03-04 13:28:00,
2013-03-04 08:34:00,21.0,19.0,29.84,NW,311,10.0,19.0,92,0.00,,,0.00,Wunderground v.1.15,2013-03-04 13:34:00,
2013-03-04 08:40:00,21.1,19.1,29.84,NW,314,11.0,11.0,92,0.00,,,0.00,Wunderground v.1.15,2013-03-04 13:40:00,
2013-03-04 08:46:00,21.1,18.9,29.84,NNW,329,10.0,19.0,91,0.00,,,0.00,Wunderground v.1.15,2013-03-04 13:46:00,
2013-03-04 08:52:00,21.1,18.9,29.84,NW,311,9.0,19.0,91,0.00,,,0.00,Wunderground v.1.15,2013-03-04 13:52:00,
2013-03-04 08:58:00,21.2,19.0,29.83,NW,309,9.0,19.0,91,0.00,,,0.00,Wunderground v.1.15,2013-03-04 13:58:00,
2013-03-04 09:04:00,21.2,18.5,29.83,NW,319,12.0,21.0,89,0.00,,,0.00,Wunderground v.1.15,2013-03-04 14:04:00,
2013-03-04 09:10:00,21.3,18.6,29.84,WNW,300,13.0,13.0,89,0.00,,,0.00,Wunderground v.1.15,2013-03-04 14:10:00,
2013-03-04 09:16:00,21.4,18.7,29.84,NNW,339,11.0,21.0,89,0.00,,,0.00,Wunderground v.1.15,2013-03-04 14:16:00,
2013-03-04 09:22:00,21.4,18.7,29.84,NW,317,11.0,21.0,89,0.00,,,0.00,Wunderground v.1.15,2013-03-04 14:22:00,
2013-03-04 09:28:00,21.4,18.7,29.84,North,5,13.0,21.0,89,0.00,,,0.00,Wunderground v.1.15,2013-03-04 14:28:00,
2013-03-04 09:34:00,21.5,18.8,29.84,NW,311,11.0,21.0,89,0.00,,,0.00,Wunderground v.1.15,2013-03-04 14:34:00,
2013-03-04 09:39:00,21.7,18.7,29.84,NNW,346,10.0,21.0,88,0.00,,,0.00,Wunderground v.1.15,2013-03-04 14:39:00,
2013-03-04 09:46:00,21.8,18.8,29.84,NNW,333,10.0,21.0,88,0.00,,,0.00,Wunderground v.1.15,2013-03-04 14:46:00,
2013-03-04 09:51:00,22.0,19.3,29.84,NW,308,9.0,21.0,89,0.00,,,0.00,Wunderground v.1.15,2013-03-04 14:51:00,
2013-03-04 09:57:00,22.0,19.0,29.84,NW,317,9.0,17.0,89,0.00,,,0.00,weatherlink.com 1.10,2013-03-04 14:57:00,
2013-03-04 10:04:00,22.1,19.4,29.84,NW,314,9.0,16.0,89,0.00,,,0.00,Wunderground v.1.15,2013-03-04 15:04:00,
2013-03-04 10:09:00,22.2,19.5,29.84,WNW,302,9.0,23.0,89,0.00,,,0.00,Wunderground v.1.15,2013-03-04 15:09:00,
2013-03-04 10:15:00,22.2,19.5,29.84,NW,304,9.0,23.0,89,0.00,,,0.00,Wunderground v.1.15,2013-03-04 15:15:00,
2013-03-04 10:22:00,22.4,19.6,29.84,NNW,338,10.0,23.0,89,0.00,,,0.00,Wunderground v.1.15,2013-03-04 15:22:00,
2013-03-04 10:28:00,22.5,19.7,29.84,WNW,298,10.0,23.0,89,0.00,,,0.00,Wunderground v.1.15,2013-03-04 15:28:00,
2013-03-04 10:34:00,22.4,19.6,29.84,NW,309,12.0,23.0,89,0.00,,,0.00,Wunderground v.1.15,2013-03-04 15:34:00,
2013-03-04 10:40:00,22.5,19.7,29.84,WNW,300,11.0,11.0,89,0.00,,,0.00,Wunderground v.1.15,2013-03-04 15:40:00,
2013-03-04 10:46:00,22.5,19.7,29.84,NNW,337,6.0,23.0,89,0.00,,,0.00,Wunderground v.1.15,2013-03-04 15:46:00,
2013-03-04 10:52:00,22.5,19.7,29.84,WNW,302,14.0,23.0,89,0.00,,,0.01,Wunderground v.1.15,2013-03-04 15:52:00,
2013-03-04 10:57:00,22.5,19.7,29.84,NW,323,13.0,23.0,89,0.00,,,0.01,Wunderground v.1.15,2013-03-04 15:57:00,
2013-03-04 11:04:00,22.6,19.8,29.84,NW,306,11.0,23.0,89,0.00,,,0.01,Wunderground v.1.15,2013-03-04 16:04:00,
2013-03-04 11:12:00,22.6,19.8,29.84,NNW,327,12.0,12.0,89,0.00,,,0.01,Wunderground v.1.15,2013-03-04 16:12:00,
2013-03-04 11:18:00,22.8,19.8,29.84,NW,313,12.0,23.0,88,0.00,,,0.01,Wunderground v.1.15,2013-03-04 16:18:00,
2013-03-04 11:23:00,22.9,19.9,29.84,NW,325,12.0,23.0,88,0.00,,,0.01,Wunderground v.1.15,2013-03-04 16:23:00,
2013-03-04 11:30:00,22.9,19.9,29.84,NW,320,10.0,23.0,88,0.00,,,0.01,Wunderground v.1.15,2013-03-04 16:30:00,
2013-03-04 11:35:00,23.1,20.1,29.84,NW,306,9.0,23.0,88,0.00,,,0.01,Wunderground v.1.15,2013-03-04 16:35:00,
2013-03-04 11:42:00,23.2,20.2,29.84,WNW,296,9.0,23.0,88,0.00,,,0.01,Wunderground v.1.15,2013-03-04 16:42:00,
2013-03-04 11:48:00,23.3,20.0,29.85,NW,318,11.0,23.0,87,0.00,,,0.01,Wunderground v.1.15,2013-03-04 16:48:00,
2013-03-04 11:54:00,23.3,20.0,29.85,NNW,333,13.0,23.0,87,0.00,,,0.01,Wunderground v.1.15,2013-03-04 16:54:00,
2013-03-04 12:00:00,23.5,20.2,29.84,WNW,296,12.0,14.0,87,0.00,,,0.01,Wunderground v.1.15,2013-03-04 17:00:00,
2013-03-04 12:06:00,23.5,19.9,29.84,NW,323,12.0,21.0,86,0.00,,,0.01,Wunderground v.1.15,2013-03-04 17:06:00,
2013-03-04 12:11:00,23.5,19.9,29.84,NW,316,12.0,21.0,86,0.00,,,0.01,Wunderground v.1.15,2013-03-04 17:11:00,
2013-03-04 12:18:00,23.7,20.4,29.84,NW,317,11.0,21.0,87,0.00,,,0.01,Wunderground v.1.15,2013-03-04 17:18:00,
2013-03-04 12:24:00,23.5,19.9,29.84,NW,317,12.0,21.0,86,0.00,,,0.01,Wunderground v.1.15,2013-03-04 17:24:00,
2013-03-04 12:30:00,23.5,19.9,29.84,NW,315,13.0,21.0,86,0.00,,,0.01,Wunderground v.1.15,2013-03-04 17:30:00,
2013-03-04 12:35:00,23.4,19.8,29.84,NW,315,14.0,21.0,86,0.00,,,0.01,Wunderground v.1.15,2013-03-04 17:35:00,
2013-03-04 12:42:00,23.7,20.1,29.83,NNW,335,13.0,21.0,86,0.00,,,0.01,Wunderground v.1.15,2013-03-04 17:42:00,
2013-03-04 12:48:00,23.8,20.2,29.83,NW,310,11.0,21.0,86,0.00,,,0.01,Wunderground v.1.15,2013-03-04 17:48:00,
2013-03-04 12:53:00,24.0,20.1,29.83,NW,322,10.0,21.0,85,0.00,,,0.01,Wunderground v.1.15,2013-03-04 17:53:00,
2013-03-04 12:59:00,24.3,20.0,29.83,WNW,302,12.0,17.0,85,0.00,,,0.01,weatherlink.com 1.10,2013-03-04 17:59:00,
2013-03-04 13:04:00,24.3,20.4,29.82,NW,314,10.0,15.0,85,0.00,,,0.01,Wunderground v.1.15,2013-03-04 18:04:00,
2013-03-04 13:10:00,24.3,20.2,29.82,NW,316,18.0,23.0,84,0.00,,,0.01,Wunderground v.1.15,2013-03-04 18:10:00,
2013-03-04 13:16:00,24.3,20.2,29.83,NW,311,14.0,23.0,84,0.00,,,0.01,Wunderground v.1.15,2013-03-04 18:16:00,
2013-03-04 13:22:00,24.3,20.2,29.82,WNW,302,13.0,23.0,84,0.00,,,0.01,Wunderground v.1.15,2013-03-04 18:22:00,
2013-03-04 13:28:00,24.6,20.5,29.82,NW,319,12.0,23.0,84,0.00,,,0.01,Wunderground v.1.15,2013-03-04 18:28:00,
2013-03-04 13:30:00,24.7,20.8,29.82,NW,325,11.0,23.0,85,0.00,,,0.01,Wunderground v.1.15,2013-03-04 18:30:00,
2013-03-04 13:32:00,24.7,20.6,29.83,NW,315,10.0,23.0,84,0.00,,,0.01,Wunderground v.1.15,2013-03-04 18:32:00,
2013-03-04 13:34:00,24.8,20.7,29.83,NW,316,11.0,23.0,84,0.00,,,0.01,Wunderground v.1.15,2013-03-04 18:34:00,
2013-03-04 13:40:00,24.7,20.6,29.83,NW,325,12.0,23.0,84,0.00,,,0.01,Wunderground v.1.15,2013-03-04 18:40:00,
2013-03-04 13:45:00,24.7,20.0,29.82,NW,306,10.0,21.0,83,0.00,,,0.01,weatherlink.com 1.10,2013-03-04 18:45:00,
2013-03-04 13:52:00,25.1,20.7,29.83,NW,313,9.0,23.0,83,0.00,,,0.01,Wunderground v.1.15,2013-03-04 18:52:00,
2013-03-04 13:58:00,25.1,20.7,29.83,NW,324,10.0,23.0,83,0.00,,,0.01,Wunderground v.1.15,2013-03-04 18:58:00,
2013-03-04 14:04:00,25.1,20.7,29.83,NW,318,11.0,21.0,83,0.00,,,0.01,Wunderground v.1.15,2013-03-04 19:04:00,
2013-03-04 14:09:00,25.3,20.9,29.82,NNW,347,11.0,21.0,83,0.00,,,0.01,Wunderground v.1.15,2013-03-04 19:09:00,
2013-03-04 14:15:00,25.3,21.0,29.82,NW,314,14.0,22.0,82,0.00,,,0.01,weatherlink.com 1.10,2013-03-04 19:15:00,
2013-03-04 14:22:00,25.5,20.8,29.82,NW,304,12.0,21.0,82,0.00,,,0.01,Wunderground v.1.15,2013-03-04 19:22:00,
2013-03-04 14:27:00,25.4,20.7,29.83,NW,312,12.0,21.0,82,0.00,,,0.01,Wunderground v.1.15,2013-03-04 19:27:00,
2013-03-04 14:34:00,25.4,20.7,29.83,NW,323,12.0,21.0,82,0.00,,,0.01,Wunderground v.1.15,2013-03-04 19:34:00,
2013-03-04 14:40:00,25.5,20.8,29.83,NW,316,12.0,21.0,82,0.00,,,0.01,Wunderground v.1.15,2013-03-04 19:40:00,
2013-03-04 14:46:00,25.5,20.8,29.83,NW,322,13.0,21.0,82,0.00,,,0.01,Wunderground v.1.15,2013-03-04 19:46:00,
2013-03-04 14:52:00,25.6,20.9,29.83,NNW,328,13.0,13.0,82,0.00,,,0.01,Wunderground v.1.15,2013-03-04 19:52:00,
2013-03-04 15:00:00,25.6,21.0,29.82,NNW,329,17.0,21.0,81,0.00,,,0.01,weatherlink.com 1.10,2013-03-04 20:00:00,
2013-03-04 15:06:00,25.7,21.0,29.83,NNW,330,14.0,14.0,82,0.00,,,0.01,Wunderground v.1.15,2013-03-04 20:06:00,
2013-03-04 15:12:00,25.8,21.1,29.83,NW,319,12.0,23.0,82,0.00,,,0.01,Wunderground v.1.15,2013-03-04 20:12:00,
2013-03-04 15:22:00,25.8,21.1,29.83,NW,306,13.0,13.0,82,0.00,,,0.01,Wunderground v.1.15,2013-03-04 20:22:00,
2013-03-04 15:28:00,25.8,21.1,29.83,NW,322,13.0,23.0,82,0.00,,,0.01,Wunderground v.1.15,2013-03-04 20:28:00,
2013-03-04 15:34:00,25.9,20.9,29.83,NW,311,15.0,15.0,81,0.00,,,0.01,Wunderground v.1.15,2013-03-04 20:34:00,
2013-03-04 15:39:00,26.0,21.0,29.83,WNW,295,14.0,23.0,81,0.00,,,0.01,Wunderground v.1.15,2013-03-04 20:39:00,
2013-03-04 15:45:00,26.1,21.0,29.83,NW,314,15.0,19.0,81,0.00,,,0.01,weatherlink.com 1.10,2013-03-04 20:45:00,
2013-03-04 15:51:00,26.2,21.2,29.83,WNW,302,12.0,23.0,81,0.00,,,0.01,Wunderground v.1.15,2013-03-04 20:51:00,
2013-03-04 15:57:00,26.3,21.3,29.83,NW,315,11.0,23.0,81,0.00,,,0.01,Wunderground v.1.15,2013-03-04 20:57:00,
2013-03-04 16:04:00,26.3,21.0,29.84,NW,324,11.0,27.0,80,0.00,,,0.01,Wunderground v.1.15,2013-03-04 21:04:00,
2013-03-04 16:10:00,26.5,21.5,29.83,NW,316,11.0,27.0,81,0.00,,,0.01,Wunderground v.1.15,2013-03-04 21:10:00,
2013-03-04 16:15:00,26.5,21.0,29.84,NW,306,10.0,18.0,80,0.00,,,0.01,weatherlink.com 1.10,2013-03-04 21:15:00,
2013-03-04 16:22:00,26.5,21.5,29.84,NW,317,12.0,27.0,81,0.00,,,0.01,Wunderground v.1.15,2013-03-04 21:22:00,
2013-03-04 16:28:00,26.6,21.6,29.84,NNW,328,13.0,27.0,81,0.00,,,0.01,Wunderground v.1.15,2013-03-04 21:28:00,
2013-03-04 16:34:00,26.6,21.3,29.84,NW,311,13.0,27.0,80,0.00,,,0.01,Wunderground v.1.15,2013-03-04 21:34:00,
2013-03-04 16:40:00,26.7,21.4,29.84,NW,313,14.0,27.0,80,0.00,,,0.01,Wunderground v.1.15,2013-03-04 21:40:00,
2013-03-04 16:45:00,26.7,22.0,29.84,NNW,329,11.0,23.0,81,0.00,,,0.01,weatherlink.com 1.10,2013-03-04 21:45:00,
2013-03-04 16:51:00,26.8,21.5,29.84,NW,317,12.0,27.0,80,0.00,,,0.01,Wunderground v.1.15,2013-03-04 21:51:00,
2013-03-04 16:57:00,26.8,21.5,29.84,NW,313,11.0,27.0,80,0.00,,,0.01,Wunderground v.1.15,2013-03-04 21:57:00,
2013-03-04 17:04:00,26.7,21.4,29.84,NNW,327,14.0,23.0,80,0.00,,,0.01,Wunderground v.1.15,2013-03-04 22:04:00,
2013-03-04 17:10:00,26.8,21.5,29.84,NW,324,13.0,13.0,80,0.00,,,0.01,Wunderground v.1.15,2013-03-04 22:10:00,
2013-03-04 17:15:00,26.8,21.8,29.84,NW,309,12.0,23.0,81,0.00,,,0.01,Wunderground v.1.15,2013-03-04 22:15:00,
2013-03-04 17:22:00,26.9,21.8,29.85,NW,317,10.0,23.0,81,0.00,,,0.01,Wunderground v.1.15,2013-03-04 22:22:00,
2013-03-04 17:28:00,26.9,22.1,29.85,WNW,292,9.0,23.0,82,0.00,,,0.01,Wunderground v.1.15,2013-03-04 22:28:00,
2013-03-04 17:34:00,26.9,21.8,29.85,WNW,292,10.0,23.0,81,0.00,,,0.01,Wunderground v.1.15,2013-03-04 22:34:00,
2013-03-04 17:39:00,26.8,21.8,29.85,NW,323,12.0,23.0,81,0.00,,,0.01,Wunderground v.1.15,2013-03-04 22:39:00,
2013-03-04 17:46:00,26.8,22.0,29.86,NW,310,12.0,23.0,82,0.00,,,0.01,Wunderground v.1.15,2013-03-04 22:46:00,
2013-03-04 17:52:00,26.9,22.1,29.85,NNW,331,11.0,23.0,82,0.00,,,0.01,Wunderground v.1.15,2013-03-04 22:52:00,
2013-03-04 17:58:00,26.9,22.1,29.86,NW,316,12.0,23.0,82,0.00,,,0.01,Wunderground v.1.15,2013-03-04 22:58:00,
2013-03-04 18:04:00,26.9,22.4,29.86,NW,324,12.0,22.0,83,0.00,,,0.01,Wunderground v.1.15,2013-03-04 23:04:00,
2013-03-04 18:10:00,26.9,22.4,29.86,NW,309,14.0,22.0,83,0.00,,,0.01,Wunderground v.1.15,2013-03-04 23:10:00,
2013-03-04 18:16:00,26.9,22.4,29.86,NW,315,16.0,22.0,83,0.00,,,0.01,Wunderground v.1.15,2013-03-04 23:16:00,
2013-03-04 18:24:00,26.9,22.4,29.87,NW,309,14.0,22.0,83,0.00,,,0.01,Wunderground v.1.15,2013-03-04 23:24:00,
2013-03-04 18:30:00,27.0,22.5,29.86,NW,323,14.0,14.0,83,0.00,,,0.01,Wunderground v.1.15,2013-03-04 23:30:00,
2013-03-04 18:36:00,26.9,22.7,29.87,NNW,327,11.0,22.0,84,0.00,,,0.01,Wunderground v.1.15,2013-03-04 23:36:00,
2013-03-04 18:42:00,27.0,22.8,29.87,NW,321,10.0,16.0,84,0.00,,,0.01,Wunderground v.1.15,2013-03-04 23:42:00,
2013-03-04 18:48:00,27.0,22.8,29.87,NW,316,11.0,22.0,84,0.00,,,0.01,Wunderground v.1.15,2013-03-04 23:48:00,
2013-03-04 18:54:00,26.9,22.7,29.87,NW,323,9.0,22.0,84,0.00,,,0.01,Wunderground v.1.15,2013-03-04 23:54:00,
2013-03-04 19:00:00,26.9,23.0,29.87,NNW,342,6.0,6.0,85,0.00,,,0.01,Wunderground v.1.15,2013-03-05 00:00:00,
2013-03-04 19:06:00,26.9,23.0,29.88,NW,323,6.0,22.0,85,0.00,,,0.01,Wunderground v.1.15,2013-03-05 00:06:00,
2013-03-04 19:12:00,26.8,22.9,29.87,North,349,6.0,22.0,85,0.00,,,0.01,Wunderground v.1.15,2013-03-05 00:12:00,
2013-03-04 19:17:00,26.8,23.0,29.88,NW,306,12.0,16.0,85,0.00,,,0.01,weatherlink.com 1.10,2013-03-05 00:17:00,
2013-03-04 19:24:00,26.9,23.0,29.88,NW,313,8.0,22.0,85,0.00,,,0.01,Wunderground v.1.15,2013-03-05 00:24:00,
2013-03-04 19:30:00,26.9,23.0,29.88,NW,305,8.0,22.0,85,0.00,,,0.01,Wunderground v.1.15,2013-03-05 00:30:00,
2013-03-04 19:35:00,27.0,23.1,29.88,NW,321,8.0,22.0,85,0.00,,,0.01,Wunderground v.1.15,2013-03-05 00:35:00,
2013-03-04 19:42:00,27.0,23.4,29.88,NNW,331,8.0,22.0,86,0.00,,,0.01,Wunderground v.1.15,2013-03-05 00:42:00,
2013-03-04 19:48:00,27.1,23.5,29.88,NNW,333,9.0,22.0,86,0.00,,,0.01,Wunderground v.1.15,2013-03-05 00:48:00,
2013-03-04 19:56:00,27.1,23.5,29.88,NW,313,10.0,22.0,86,0.00,,,0.01,Wunderground v.1.15,2013-03-05 00:56:00,
2013-03-04 20:02:00,27.1,23.5,29.89,NNW,343,9.0,20.0,86,0.00,,,0.01,Wunderground v.1.15,2013-03-05 01:02:00,
2013-03-04 20:08:00,27.1,23.5,29.89,NNW,331,8.0,20.0,86,0.00,,,0.01,Wunderground v.1.15,2013-03-05 01:08:00,
2013-03-04 20:14:00,27.1,23.5,29.89,WNW,294,8.0,20.0,86,0.00,,,0.01,Wunderground v.1.15,2013-03-05 01:14:00,
2013-03-04 20:20:00,27.1,23.5,29.88,NW,311,7.0,20.0,86,0.00,,,0.01,Wunderground v.1.15,2013-03-05 01:20:00,
2013-03-04 20:26:00,27.2,23.6,29.89,NW,306,9.0,20.0,86,0.00,,,0.01,Wunderground v.1.15,2013-03-05 01:26:00,
2013-03-04 20:31:00,27.2,23.6,29.89,NNW,327,8.0,20.0,86,0.00,,,0.01,Wunderground v.1.15,2013-03-05 01:31:00,
2013-03-04 20:38:00,27.2,23.6,29.89,NW,317,8.0,20.0,86,0.00,,,0.01,Wunderground v.1.15,2013-03-05 01:38:00,
2013-03-04 20:44:00,27.2,23.8,29.89,NNW,340,6.0,20.0,87,0.00,,,0.01,Wunderground v.1.15,2013-03-05 01:44:00,
2013-03-04 20:49:00,27.3,24.0,29.89,NW,323,5.0,19.0,87,0.00,,,0.01,weatherlink.com 1.10,2013-03-05 01:49:00,
2013-03-04 20:54:00,27.2,23.6,29.89,NW,314,6.0,20.0,86,0.00,,,0.01,Wunderground v.1.15,2013-03-05 01:54:00,
2013-03-04 21:00:00,27.2,23.6,29.89,NNW,333,8.0,8.0,86,0.00,,,0.01,Wunderground v.1.15,2013-03-05 02:00:00,
2013-03-04 21:06:00,27.2,23.8,29.89,WNW,292,7.0,20.0,87,0.00,,,0.01,Wunderground v.1.15,2013-03-05 02:06:00,
2013-03-04 21:11:00,27.2,23.8,29.89,WNW,303,8.0,20.0,87,0.00,,,0.01,Wunderground v.1.15,2013-03-05 02:11:00,
2013-03-04 21:18:00,27.2,23.8,29.89,NW,325,8.0,20.0,87,0.00,,,0.01,Wunderground v.1.15,2013-03-05 02:18:00,
2013-03-04 21:23:00,27.2,23.6,29.89,NW,304,9.0,20.0,86,0.00,,,0.01,Wunderground v.1.15,2013-03-05 02:23:00,
2013-03-04 21:30:00,27.2,23.8,29.89,NW,324,10.0,20.0,87,0.00,,,0.01,Wunderground v.1.15,2013-03-05 02:30:00,
2013-03-04 21:36:00,27.2,23.6,29.89,WNW,298,7.0,20.0,86,0.00,,,0.01,Wunderground v.1.15,2013-03-05 02:36:00,
2013-03-04 21:42:00,27.2,23.8,29.90,NNW,331,7.0,20.0,87,0.00,,,0.01,Wunderground v.1.15,2013-03-05 02:42:00,
2013-03-04 21:48:00,27.1,23.7,29.90,NNW,327,6.0,20.0,87,0.00,,,0.01,Wunderground v.1.15,2013-03-05 02:48:00,
2013-03-04 21:54:00,27.1,23.7,29.90,NW,308,6.0,20.0,87,0.00,,,0.01,Wunderground v.1.15,2013-03-05 02:54:00,
2013-03-04 22:00:00,27.1,23.7,29.90,NW,320,6.0,8.0,87,0.00,,,0.01,Wunderground v.1.15,2013-03-05 03:00:00,
2013-03-04 22:06:00,27.1,23.7,29.90,NW,317,6.0,14.0,87,0.00,,,0.01,Wunderground v.1.15,2013-03-05 03:06:00,
2013-03-04 22:11:00,27.0,23.6,29.90,NW,321,6.0,7.0,87,0.00,,,0.01,Wunderground v.1.15,2013-03-05 03:11:00,
2013-03-04 22:18:00,27.0,23.9,29.90,NW,312,7.0,14.0,88,0.00,,,0.01,Wunderground v.1.15,2013-03-05 03:18:00,
2013-03-04 22:24:00,26.9,23.8,29.90,NW,319,7.0,14.0,88,0.00,,,0.01,Wunderground v.1.15,2013-03-05 03:24:00,
2013-03-04 22:30:00,26.9,23.8,29.90,NW,326,6.0,14.0,88,0.00,,,0.01,Wunderground v.1.15,2013-03-05 03:30:00,
2013-03-04 22:36:00,26.9,23.8,29.90,NW,312,5.0,14.0,88,0.00,,,0.01,Wunderground v.1.15,2013-03-05 03:36:00,
2013-03-04 22:42:00,26.8,23.4,29.91,NNE,13,6.0,14.0,87,0.00,,,0.01,Wunderground v.1.15,2013-03-05 03:42:00,
2013-03-04 22:48:00,26.7,23.4,29.91,WNW,298,6.0,14.0,87,0.00,,,0.01,Wunderground v.1.15,2013-03-05 03:48:00,
2013-03-04 22:54:00,26.6,23.3,29.91,NNW,346,6.0,17.0,87,0.00,,,0.01,Wunderground v.1.15,2013-03-05 03:54:00,
2013-03-04 23:00:00,26.5,23.2,29.90,NNW,335,7.0,7.0,87,0.00,,,0.01,Wunderground v.1.15,2013-03-05 04:00:00,
2013-03-04 23:05:00,26.4,23.0,29.90,NW,323,4.0,20.0,87,0.00,,,0.01,weatherlink.com 1.10,2013-03-05 04:05:00,
2013-03-04 23:12:00,26.3,23.0,29.91,NNW,330,6.0,19.0,87,0.00,,,0.01,Wunderground v.1.15,2013-03-05 04:12:00,
2013-03-04 23:18:00,26.2,22.9,29.91,North,355,5.0,19.0,87,0.00,,,0.01,Wunderground v.1.15,2013-03-05 04:18:00,
2013-03-04 23:24:00,26.1,22.5,29.91,North,11,6.0,19.0,86,0.00,,,0.01,Wunderground v.1.15,2013-03-05 04:24:00,
2013-03-04 23:30:00,26.0,22.4,29.91,NW,315,5.0,19.0,86,0.00,,,0.01,Wunderground v.1.15,2013-03-05 04:30:00,
2013-03-04 23:35:00,25.8,22.2,29.91,NNW,340,7.0,19.0,86,0.00,,,0.01,Wunderground v.1.15,2013-03-05 04:35:00,
2013-03-04 23:42:00,25.7,22.1,29.90,NW,320,7.0,19.0,86,0.00,,,0.01,Wunderground v.1.15,2013-03-05 04:42:00,
2013-03-04 23:48:00,25.6,22.0,29.91,NW,318,7.0,19.0,86,0.00,,,0.01,Wunderground v.1.15,2013-03-05 04:48:00,
2013-03-04 23:54:00,25.5,22.2,29.91,NW,315,8.0,19.0,87,0.00,,,0.01,Wunderground v.1.15,2013-03-05 04:54:00,